Tracking 23612 objects as of 17-Sep-2021
HD Live streaming from Space Station
objects crossing your sky now
Track INSPIRATION-4

SL-3 R/B

Track SL-3 R/B now!
10-day predictions
SL-3 R/B is classified as:


NORAD ID: 4814
Int'l Code: 1970-113B
Perigee: 445.8 km
Apogee: 478.9 km
Inclination: 81.1 °
Period: 93.7 minutes
Semi major axis: 6833 km
RCS: 6.542 m2 (large)
Launch date: December 18, 1970
Source: Commonwealth of Independent States (former USSR) (CIS)
Launch site: PLESETSK MISSILE AND SPACE COMPLEX (PKMTR)

Note: This is a ROCKET BODY
aabbcc
Your satellite tracking list
Your tracking list is empty




NASA's NSSDC Master Catalog

Two Line Element Set (TLE):
1 04814U 70113B   21259.83563517  .00002250  00000-0  60876-4 0  9996
2 04814  81.1431 328.0571 0024180 136.3225 223.9934 15.36928668773193
Source of the keplerian elements: AFSPC